Hourly Data Report for February 13, 2020

TORONTO CITY
ONTARIO
Current Station Operator: ECCC - MSC

43°40'00.000" N
79°24'00.000" W
112.50 m
6158355
71508
XTO

Download Data

Hourly Data (February 2020)
Hourly Data Report for February 13, 2020
TIME
LST
Temp Definition
°C
Dew Point Definition
°C
Rel Hum Definition
%
Precip. Amount Definition
mm

Wind Dir Definition
10's deg

Wind Spd Definition
km/h
Visibility Definition
km
Stn Press Definition
kPa
Hmdx Definition


Wind Chill Definition


Weather Definition


00:00 1.7 -4.6 63 0.0       99.60     LegendNANA
01:00 0.6 -2.9 77 0.0       99.53     LegendNANA
02:00 -0.5 -2.3 88 0.5       99.41     LegendNANA
03:00 -0.8 -2.5 88 0.2       99.30     LegendNANA
04:00 -0.7 -2.8 86 0.0       99.30     LegendNANA
05:00 -0.8 -2.8 86 0.2       99.26     LegendNANA
06:00 -0.8 -2.7 87 0.2       99.21     LegendNANA
07:00 -0.4 -3.1 82 0.0       99.23     LegendNANA
08:00 -0.4 -2.9 83 0.3       99.26     LegendNANA
09:00 -0.4 -2.4 87 0.0       99.33     LegendNANA
10:00 0.3 -2.1 84 0.2       99.28     LegendNANA
11:00 0.6 -2.8 78 0.0       99.32     LegendNANA
12:00 -0.4 -3.6 79 0.2       99.40     LegendNANA
13:00 -2.5 -5.1 82 0.3       99.39     LegendNANA
14:00 -3.6 -7.1 77 0.2       99.44     LegendNANA
15:00 -5.2 -9.0 75 0.0       99.54     LegendNANA
16:00 -6.8 -10.6 74 0.0       99.68     LegendNANA
17:00 -7.4 -12.1 69 0.0       99.81     LegendNANA
18:00 -8.5 -13.8 66 0.0       100.01     LegendNANA
19:00 -8.9 -14.3 65 0.0       100.16     LegendNANA
20:00 -9.6 -15.2 64 0.0       100.30     LegendNANA
21:00 -10.1 -15.5 65 0.0       100.41     LegendNANA
22:00 -10.7 -15.7 66 0.0       100.55     LegendNANA
23:00 -12.6 -18.7 60 0.0       100.70     LegendNANA

Notes on Data Quality.

Legend

  • E = Estimated
  • M = Missing
  • NA = Not Available*
  • [empty] = Indicates an unobserved value
Date modified: